| time (UTC) | temp C | wind direction | speed KPH | gust KPH | rain 1hr cm | rain 24hr cm | rain mn cm | humidity % | barometer mb |
| 20260507231721 | 13 | 240 | 3.2 | 3.2 | 0.00 | 0.00 | 0.00 | 43 | 1011.3 |
| 20260507231218 | 13 | 246 | 1.6 | 3.2 | 0.00 | 0.00 | 0.00 | 44 | 1011.3 |
| 20260507230715 | 13 | 245 | 1.6 | 1.6 | 0.00 | 0.00 | 0.00 | 43 | 1011.3 |
| 20260507230213 | 13 | 202 | 4.8 | 8.0 | 0.00 | 0.00 | 0.00 | 44 | 1011.0 |
| 20260507225711 | 13 | 250 | 0.0 | 0.0 | 0.00 | 0.00 | 0.00 | 43 | 1011.0 |
| 20260507225209 | 13 | 234 | 3.2 | 4.8 | 0.00 | 0.00 | 0.00 | 43 | 1011.3 |
| 20260507224705 | 13 | 260 | 1.6 | 1.6 | 0.00 | 0.00 | 0.00 | 42 | 1010.9 |
| 20260507224201 | 14 | 227 | 1.6 | 3.2 | 0.00 | 0.00 | 0.00 | 42 | 1010.8 |
| 20260507223657 | 14 | 272 | 1.6 | 1.6 | 0.00 | 0.00 | 0.00 | 42 | 1011.0 |
| 20260507223154 | 14 | 258 | 0.0 | 0.0 | 0.00 | 0.00 | 0.00 | 42 | 1010.9 |
| 20260507222651 | 14 | 268 | 0.0 | 0.0 | 0.00 | 0.00 | 0.00 | 43 | 1010.8 |
| 20260507222147 | 15 | 104 | 3.2 | 3.2 | 0.00 | 0.00 | 0.00 | 42 | 1010.8 |
| 20260507221644 | 15 | 211 | 6.4 | 8.0 | 0.00 | 0.00 | 0.00 | 43 | 1010.6 |
| 20260507221140 | 15 | 265 | 0.0 | 0.0 | 0.00 | 0.00 | 0.00 | 42 | 1010.6 |
| 20260507220637 | 15 | 264 | 3.2 | 4.8 | 0.00 | 0.00 | 0.00 | 40 | 1010.5 |
| 20260507220136 | 15 | 256 | 0.0 | 1.6 | 0.00 | 0.00 | 0.00 | 43 | 1010.5 |
| 20260507215631 | 15 | 232 | 3.2 | 3.2 | 0.00 | 0.00 | 0.00 | 42 | 1010.4 |
| 20260507215129 | 15 | 262 | 0.0 | 1.6 | 0.00 | 0.00 | 0.00 | 42 | 1010.4 |
| 20260507214626 | 14 | 256 | 0.0 | 1.6 | 0.00 | 0.00 | 0.00 | 42 | 1010.5 |
| 20260507214122 | 15 | 191 | 3.2 | 4.8 | 0.00 | 0.00 | 0.00 | 41 | 1010.5 |
| 20260507213618 | 15 | 252 | 1.6 | 1.6 | 0.00 | 0.00 | 0.00 | 40 | 1010.3 |
| 20260507213116 | 15 | 311 | 1.6 | 3.2 | 0.00 | 0.00 | 0.00 | 40 | 1010.2 |
| 20260507212612 | 15 | 228 | 3.2 | 3.2 | 0.00 | 0.00 | 0.00 | 38 | 1010.3 |
| 20260507212109 | 15 | 227 | 3.2 | 3.2 | 0.00 | 0.00 | 0.00 | 39 | 1010.5 |
| 20260507211605 | 15 | 183 | 3.2 | 3.2 | 0.00 | 0.00 | 0.00 | 38 | 1010.2 |
| 20260507211101 | 15 | 223 | 3.2 | 3.2 | 0.00 | 0.00 | 0.00 | 39 | 1010.3 |
| 20260507210559 | 15 | 272 | 0.0 | 0.0 | 0.00 | 0.00 | 0.00 | 38 | 1010.4 |
| 20260507210055 | 15 | 338 | 4.8 | 8.0 | 0.00 | 0.00 | 0.00 | 39 | 1010.3 |
| 20260507205552 | 16 | 202 | 4.8 | 4.8 | 0.00 | 0.00 | 0.00 | 38 | 1009.9 |
| 20260507205048 | 15 | 238 | 0.0 | 1.6 | 0.00 | 0.00 | 0.00 | 40 | 1010.0 |
| 20260507204545 | 15 | 286 | 1.6 | 1.6 | 0.00 | 0.00 | 0.00 | 40 | 1010.0 |
| 20260507204042 | 15 | 178 | 4.8 | 4.8 | 0.00 | 0.00 | 0.00 | 41 | 1010.4 |
| 20260507203540 | 15 | 258 | 1.6 | 1.6 | 0.00 | 0.00 | 0.00 | 42 | 1010.3 |
| 20260507203037 | 15 | 240 | 3.2 | 3.2 | 0.00 | 0.00 | 0.00 | 40 | 1010.2 |
| 20260507202533 | 15 | 218 | 1.6 | 3.2 | 0.00 | 0.00 | 0.00 | 40 | 1010.1 |
| 20260507202029 | 16 | 202 | 4.8 | 4.8 | 0.00 | 0.00 | 0.00 | 40 | 1010.4 |
| 20260507201525 | 16 | 199 | 8.0 | 8.0 | 0.00 | 0.00 | 0.00 | 40 | 1010.2 |
| 20260507201021 | 16 | 271 | 0.0 | 1.6 | 0.00 | 0.00 | 0.00 | 38 | 1010.3 |
| 20260507200517 | 15 | 211 | 6.4 | 9.7 | 0.00 | 0.00 | 0.00 | 41 | 1010.4 |
| 20260507200013 | 15 | 248 | 1.6 | 1.6 | 0.00 | 0.00 | 0.00 | 43 | 1010.5 |
| 20260507195511 | 15 | 223 | 3.2 | 3.2 | 0.00 | 0.00 | 0.00 | 42 | 1010.6 |
| 20260507195008 | 16 | 233 | 1.6 | 3.2 | 0.00 | 0.00 | 0.00 | 41 | 1010.6 |
| 20260507194504 | 15 | 211 | 1.6 | 3.2 | 0.00 | 0.00 | 0.00 | 42 | 1010.4 |
| 20260507194000 | 16 | 241 | 1.6 | 3.2 | 0.00 | 0.00 | 0.00 | 41 | 1010.7 |
| 20260507193458 | 16 | 274 | 3.2 | 3.2 | 0.00 | 0.00 | 0.00 | 42 | 1010.8 |
| 20260507192954 | 15 | 231 | 3.2 | 3.2 | 0.00 | 0.00 | 0.00 | 42 | 1010.6 |
| 20260507192450 | 15 | 204 | 4.8 | 4.8 | 0.00 | 0.00 | 0.00 | 44 | 1010.8 |
| 20260507191947 | 15 | 243 | 3.2 | 3.2 | 0.00 | 0.00 | 0.00 | 45 | 1010.8 |
| 20260507191443 | 15 | 219 | 3.2 | 3.2 | 0.00 | 0.00 | 0.00 | 44 | 1010.8 |
| 20260507190940 | 15 | 230 | 4.8 | 4.8 | 0.00 | 0.00 | 0.00 | 44 | 1010.8 |
| 20260507190438 | 15 | 236 | 1.6 | 3.2 | 0.00 | 0.00 | 0.00 | 46 | 1010.7 |
| 20260507185936 | 15 | 216 | 4.8 | 4.8 | 0.00 | 0.00 | 0.00 | 46 | 1010.7 |
| 20260507185433 | 15 | 256 | 1.6 | 3.2 | 0.00 | 0.00 | 0.00 | 44 | 1010.9 |
| 20260507184930 | 15 | 251 | 3.2 | 4.8 | 0.00 | 0.00 | 0.00 | 46 | 1011.0 |
| 20260507184428 | 15 | 212 | 4.8 | 4.8 | 0.00 | 0.00 | 0.00 | 46 | 1010.9 |
| 20260507183926 | 15 | 260 | 0.0 | 0.0 | 0.00 | 0.00 | 0.00 | 45 | 1011.3 |
| 20260507183422 | 15 | 270 | 0.0 | 0.0 | 0.00 | 0.00 | 0.00 | 47 | 1011.1 |
| 20260507182920 | 14 | 230 | 1.6 | 3.2 | 0.00 | 0.00 | 0.00 | 47 | 1011.0 |
| 20260507182415 | 15 | 225 | 4.8 | 8.0 | 0.00 | 0.00 | 0.00 | 45 | 1011.1 |
| 20260507181912 | 15 | 261 | 0.0 | 0.0 | 0.00 | 0.00 | 0.00 | 46 | 1011.1 |
| 20260507181408 | 15 | 210 | 6.4 | 8.0 | 0.00 | 0.00 | 0.00 | 44 | 1011.2 |
| 20260507180904 | 15 | 260 | 0.0 | 3.2 | 0.00 | 0.00 | 0.00 | 44 | 1011.3 |
| 20260507180401 | 16 | 188 | 4.8 | 8.0 | 0.00 | 0.00 | 0.00 | 43 | 1011.3 |
| 20260507175857 | 15 | 212 | 3.2 | 4.8 | 0.00 | 0.00 | 0.00 | 45 | 1011.3 |
| 20260507175354 | 15 | 222 | 4.8 | 4.8 | 0.00 | 0.00 | 0.00 | 47 | 1011.2 |
| 20260507174852 | 15 | 176 | 9.7 | 11.3 | 0.00 | 0.00 | 0.00 | 47 | 1011.2 |
| 20260507174349 | 15 | 229 | 4.8 | 4.8 | 0.00 | 0.00 | 0.00 | 45 | 1011.5 |
| 20260507173847 | 15 | 188 | 4.8 | 9.7 | 0.00 | 0.00 | 0.00 | 44 | 1011.3 |
| 20260507173343 | 15 | 261 | 0.0 | 0.0 | 0.00 | 0.00 | 0.00 | 48 | 1011.5 |
| 20260507172839 | 14 | 258 | 0.0 | 1.6 | 0.00 | 0.00 | 0.00 | 49 | 1011.7 |
| 20260507172336 | 14 | 232 | 1.6 | 1.6 | 0.00 | 0.00 | 0.00 | 47 | 1011.8 |
| 20260507171832 | 15 | 255 | 1.6 | 3.2 | 0.00 | 0.00 | 0.00 | 45 | 1011.6 |
| 20260507171329 | 15 | 209 | 3.2 | 4.8 | 0.00 | 0.00 | 0.00 | 46 | 1011.8 |
| 20260507170826 | 14 | 193 | 8.0 | 9.7 | 0.00 | 0.00 | 0.00 | 46 | 1011.7 |
| 20260507170323 | 14 | 260 | 3.2 | 3.2 | 0.00 | 0.00 | 0.00 | 48 | 1011.9 |
| 20260507165819 | 14 | 210 | 3.2 | 3.2 | 0.00 | 0.00 | 0.00 | 46 | 1012.0 |
| 20260507165315 | 15 | 206 | 8.0 | 9.7 | 0.00 | 0.00 | 0.00 | 45 | 1012.0 |
| 20260507164811 | 15 | 226 | 4.8 | 4.8 | 0.00 | 0.00 | 0.00 | 45 | 1012.1 |
| 20260507164308 | 15 | 234 | 3.2 | 3.2 | 0.00 | 0.00 | 0.00 | 43 | 1012.0 |
| 20260507163805 | 15 | 249 | 0.0 | 0.0 | 0.00 | 0.00 | 0.00 | 46 | 1012.2 |
| 20260507163303 | 14 | 242 | 3.2 | 4.8 | 0.00 | 0.00 | 0.00 | 45 | 1012.3 |
| 20260507162759 | 14 | 253 | 3.2 | 4.8 | 0.00 | 0.00 | 0.00 | 47 | 1012.3 |
| 20260507162255 | 13 | 237 | 4.8 | 4.8 | 0.00 | 0.00 | 0.00 | 45 | 1012.3 |
| 20260507161752 | 13 | 266 | 1.6 | 3.2 | 0.00 | 0.00 | 0.00 | 51 | 1012.4 |
| 20260507161248 | 13 | 238 | 3.2 | 3.2 | 0.00 | 0.00 | 0.00 | 50 | 1012.4 |
| 20260507160744 | 13 | 215 | 4.8 | 4.8 | 0.00 | 0.00 | 0.00 | 49 | 1012.4 |
| 20260507160241 | 13 | 215 | 4.8 | 4.8 | 0.00 | 0.00 | 0.00 | 50 | 1012.4 |
| 20260507155737 | 13 | 232 | 0.0 | 1.6 | 0.00 | 0.00 | 0.00 | 48 | 1012.4 |
| 20260507155233 | 13 | 252 | 1.6 | 1.6 | 0.00 | 0.00 | 0.00 | 52 | 1012.7 |
| 20260507154730 | 12 | 261 | 1.6 | 1.6 | 0.00 | 0.00 | 0.00 | 55 | 1012.5 |
| 20260507154228 | 12 | 175 | 4.8 | 8.0 | 0.00 | 0.00 | 0.00 | 53 | 1012.6 |
| 20260507153724 | 12 | 256 | 1.6 | 1.6 | 0.00 | 0.00 | 0.00 | 50 | 1012.8 |
| 20260507153220 | 12 | 223 | 1.6 | 3.2 | 0.00 | 0.00 | 0.00 | 50 | 1012.8 |
| 20260507152717 | 13 | 171 | 4.8 | 4.8 | 0.00 | 0.00 | 0.00 | 50 | 1012.6 |
| 20260507152213 | 12 | 247 | 3.2 | 3.2 | 0.00 | 0.00 | 0.00 | 50 | 1012.7 |
| 20260507151709 | 12 | 223 | 3.2 | 3.2 | 0.00 | 0.00 | 0.00 | 53 | 1012.8 |
| 20260507151206 | 12 | 199 | 3.2 | 3.2 | 0.00 | 0.00 | 0.00 | 53 | 1013.1 |
| 20260507150703 | 13 | 256 | 0.0 | 1.6 | 0.00 | 0.00 | 0.00 | 53 | 1013.1 |
| 20260507150159 | 13 | 253 | 0.0 | 1.6 | 0.00 | 0.00 | 0.00 | 50 | 1013.2 |
| 20260507145655 | 13 | 250 | 4.8 | 8.0 | 0.00 | 0.00 | 0.00 | 51 | 1013.3 |
| 20260507145152 | 12 | 261 | 0.0 | 1.6 | 0.00 | 0.00 | 0.00 | 53 | 1013.7 |
| 20260507144649 | 12 | 261 | 1.6 | 3.2 | 0.00 | 0.00 | 0.00 | 53 | 1013.4 |
| 20260507144147 | 12 | 259 | 0.0 | 0.0 | 0.00 | 0.00 | 0.00 | 49 | 1013.4 |
| 20260507143643 | 13 | 217 | 0.0 | 1.6 | 0.00 | 0.00 | 0.00 | 52 | 1013.5 |
| 20260507143141 | 12 | 264 | 1.6 | 1.6 | 0.00 | 0.00 | 0.00 | 51 | 1013.4 |
| 20260507142636 | 12 | 263 | 0.0 | 0.0 | 0.00 | 0.00 | 0.00 | 53 | 1013.6 |
| 20260507142133 | 12 | 226 | 4.8 | 4.8 | 0.00 | 0.00 | 0.00 | 53 | 1013.6 |
| 20260507141629 | 12 | 220 | 1.6 | 1.6 | 0.00 | 0.00 | 0.00 | 56 | 1013.5 |
| 20260507141126 | 12 | 241 | 3.2 | 3.2 | 0.00 | 0.00 | 0.00 | 59 | 1013.9 |
| 20260507140623 | 11 | 261 | 1.6 | 1.6 | 0.00 | 0.00 | 0.00 | 59 | 1013.9 |
| 20260507140120 | 11 | 231 | 4.8 | 4.8 | 0.00 | 0.00 | 0.00 | 58 | 1013.9 |
| 20260507135617 | 11 | 211 | 4.8 | 4.8 | 0.00 | 0.00 | 0.00 | 60 | 1014.0 |
| 20260507135115 | 11 | 230 | 4.8 | 8.0 | 0.00 | 0.00 | 0.00 | 60 | 1014.0 |
| 20260507134611 | 11 | 255 | 0.0 | 1.6 | 0.00 | 0.00 | 0.00 | 61 | 1014.1 |
| 20260507134107 | 11 | 234 | 3.2 | 4.8 | 0.00 | 0.00 | 0.00 | 65 | 1014.1 |
| 20260507133603 | 10 | 250 | 1.6 | 3.2 | 0.00 | 0.00 | 0.00 | 65 | 1014.1 |
| 20260507133101 | 10 | 259 | 1.6 | 1.6 | 0.00 | 0.00 | 0.00 | 67 | 1014.3 |
| 20260507132557 | 10 | 254 | 1.6 | 3.2 | 0.00 | 0.00 | 0.00 | 67 | 1014.3 |
| 20260507132054 | 10 | 257 | 1.6 | 1.6 | 0.00 | 0.00 | 0.00 | 69 | 1014.3 |
| 20260507131551 | 10 | 253 | 1.6 | 1.6 | 0.00 | 0.00 | 0.00 | 69 | 1014.5 |
| 20260507131048 | 10 | 229 | 4.8 | 4.8 | 0.00 | 0.00 | 0.00 | 71 | 1014.3 |
| 20260507130545 | 9 | 240 | 4.8 | 4.8 | 0.00 | 0.00 | 0.00 | 72 | 1014.2 |
| 20260507130043 | 10 | 199 | 6.4 | 8.0 | 0.00 | 0.00 | 0.00 | 72 | 1014.0 |
| 20260507125541 | 10 | 226 | 3.2 | 3.2 | 0.00 | 0.00 | 0.00 | 72 | 1014.4 |
| 20260507125038 | 9 | 252 | 1.6 | 3.2 | 0.00 | 0.00 | 0.00 | 70 | 1014.2 |
| 20260507124534 | 9 | 240 | 3.2 | 3.2 | 0.00 | 0.00 | 0.00 | 72 | 1014.3 |
| 20260507124032 | 8 | 232 | 4.8 | 4.8 | 0.00 | 0.00 | 0.00 | 73 | 1014.4 |
| 20260507123530 | 8 | 226 | 1.6 | 3.2 | 0.00 | 0.00 | 0.00 | 75 | 1014.4 |
| 20260507123027 | 8 | 239 | 3.2 | 3.2 | 0.00 | 0.00 | 0.00 | 77 | 1014.2 |
| 20260507122522 | 8 | 237 | 1.6 | 1.6 | 0.00 | 0.00 | 0.00 | 79 | 1014.4 |
| 20260507122018 | 7 | 234 | 3.2 | 3.2 | 0.00 | 0.00 | 0.00 | 81 | 1014.4 |
| 20260507121514 | 7 | 254 | 1.6 | 3.2 | 0.00 | 0.00 | 0.00 | 82 | 1014.3 |
| 20260507121010 | 7 | 245 | 1.6 | 1.6 | 0.00 | 0.00 | 0.00 | 85 | 1014.3 |
| 20260507120506 | 6 | 253 | 1.6 | 1.6 | 0.00 | 0.00 | 0.00 | 87 | 1014.3 |
| 20260507120004 | 6 | 253 | 1.6 | 1.6 | 0.00 | 0.00 | 0.00 | 88 | 1014.3 |
| 20260507115459 | 5 | 256 | 0.0 | 0.0 | 0.00 | 0.00 | 0.00 | 90 | 1014.2 |
| 20260507114955 | 5 | 256 | 0.0 | 0.0 | 0.00 | 0.00 | 0.00 | 91 | 1014.2 |
| 20260507114452 | 5 | 257 | 0.0 | 0.0 | 0.00 | 0.00 | 0.00 | 91 | 1014.2 |
| 20260507113949 | 4 | 262 | 0.0 | 0.0 | 0.00 | 0.00 | 0.00 | 91 | 1014.3 |
| 20260507113446 | 4 | 263 | 0.0 | 0.0 | 0.00 | 0.00 | 0.00 | 91 | 1014.2 |
| 20260507112943 | 3 | 263 | 0.0 | 0.0 | 0.00 | 0.00 | 0.00 | 91 | 1014.2 |
| 20260507112441 | 3 | 263 | 0.0 | 0.0 | 0.00 | 0.00 | 0.00 | 91 | 1013.9 |
| 20260507111937 | 3 | 263 | 0.0 | 0.0 | 0.00 | 0.00 | 0.00 | 91 | 1014.0 |
| 20260507111435 | 3 | 263 | 0.0 | 0.0 | 0.00 | 0.00 | 0.00 | 91 | 1013.9 |
| 20260507110931 | 3 | 263 | 0.0 | 0.0 | 0.00 | 0.00 | 0.00 | 91 | 1013.9 |
| 20260507110427 | 3 | 263 | 0.0 | 0.0 | 0.00 | 0.00 | 0.00 | 91 | 1013.9 |
| 20260507105924 | 3 | 262 | 0.0 | 0.0 | 0.00 | 0.00 | 0.00 | 91 | 1013.8 |
| 20260507105421 | 3 | 262 | 0.0 | 0.0 | 0.00 | 0.00 | 0.00 | 91 | 1014.1 |
| 20260507104917 | 3 | 262 | 0.0 | 0.0 | 0.00 | 0.00 | 0.00 | 91 | 1013.8 |
| 20260507104415 | 3 | 263 | 0.0 | 0.0 | 0.00 | 0.00 | 0.00 | 90 | 1013.6 |
| 20260507103910 | 3 | 262 | 0.0 | 0.0 | 0.00 | 0.00 | 0.00 | 90 | 1013.5 |
| 20260507103407 | 3 | 262 | 0.0 | 0.0 | 0.00 | 0.00 | 0.00 | 90 | 1013.6 |
| 20260507102903 | 3 | 267 | 0.0 | 0.0 | 0.00 | 0.00 | 0.00 | 90 | 1013.5 |
| 20260507102400 | 3 | 268 | 0.0 | 0.0 | 0.00 | 0.00 | 0.00 | 90 | 1013.7 |
| 20260507101856 | 3 | 268 | 0.0 | 0.0 | 0.00 | 0.00 | 0.00 | 89 | 1013.6 |
| 20260507101356 | 3 | 264 | 0.0 | 0.0 | 0.00 | 0.00 | 0.00 | 89 | 1013.8 |
| 20260507100854 | 3 | 263 | 0.0 | 0.0 | 0.00 | 0.00 | 0.00 | 89 | 1013.8 |
| 20260507100351 | 3 | 262 | 0.0 | 0.0 | 0.00 | 0.00 | 0.00 | 89 | 1013.6 |
| 20260507095849 | 3 | 262 | 0.0 | 0.0 | 0.00 | 0.00 | 0.00 | 89 | 1013.7 |
| 20260507095345 | 3 | 262 | 0.0 | 0.0 | 0.00 | 0.00 | 0.00 | 89 | 1013.6 |
| 20260507094843 | 3 | 262 | 0.0 | 0.0 | 0.00 | 0.00 | 0.00 | 88 | 1013.5 |
| 20260507094339 | 3 | 264 | 0.0 | 0.0 | 0.00 | 0.00 | 0.00 | 88 | 1013.7 |
| 20260507093837 | 3 | 265 | 0.0 | 0.0 | 0.00 | 0.00 | 0.00 | 88 | 1013.5 |
| 20260507093335 | 3 | 265 | 0.0 | 0.0 | 0.00 | 0.00 | 0.00 | 88 | 1013.5 |
| 20260507092833 | 3 | 265 | 0.0 | 0.0 | 0.00 | 0.00 | 0.00 | 88 | 1013.5 |
| 20260507092329 | 3 | 265 | 0.0 | 0.0 | 0.00 | 0.00 | 0.00 | 87 | 1013.5 |
| 20260507091825 | 3 | 264 | 0.0 | 0.0 | 0.00 | 0.00 | 0.00 | 87 | 1013.8 |
| 20260507091322 | 3 | 265 | 0.0 | 0.0 | 0.00 | 0.00 | 0.00 | 87 | 1013.8 |
| 20260507090817 | 3 | 265 | 0.0 | 0.0 | 0.00 | 0.00 | 0.00 | 87 | 1013.7 |
| 20260507090314 | 3 | 266 | 0.0 | 0.0 | 0.00 | 0.00 | 0.00 | 87 | 1013.7 |
| 20260507085811 | 3 | 263 | 0.0 | 0.0 | 0.00 | 0.00 | 0.00 | 87 | 1013.8 |
| 20260507085308 | 3 | 263 | 0.0 | 0.0 | 0.00 | 0.00 | 0.00 | 86 | 1013.7 |
| 20260507084805 | 3 | 264 | 0.0 | 0.0 | 0.00 | 0.00 | 0.00 | 86 | 1013.6 |
| 20260507084301 | 3 | 265 | 0.0 | 0.0 | 0.00 | 0.00 | 0.00 | 86 | 1013.6 |
| 20260507083759 | 4 | 269 | 0.0 | 1.6 | 0.00 | 0.00 | 0.00 | 86 | 1013.9 |
| 20260507083255 | 4 | 270 | 0.0 | 0.0 | 0.00 | 0.00 | 0.00 | 86 | 1013.6 |
| 20260507082751 | 4 | 264 | 0.0 | 0.0 | 0.00 | 0.00 | 0.00 | 86 | 1013.5 |
| 20260507082247 | 4 | 265 | 0.0 | 0.0 | 0.00 | 0.00 | 0.00 | 86 | 1013.5 |
| 20260507081744 | 4 | 273 | 1.6 | 1.6 | 0.00 | 0.00 | 0.00 | 86 | 1013.6 |
| 20260507081240 | 4 | 266 | 0.0 | 0.0 | 0.00 | 0.00 | 0.00 | 86 | 1013.8 |
| 20260507080737 | 4 | 266 | 0.0 | 0.0 | 0.00 | 0.00 | 0.00 | 86 | 1013.7 |
| 20260507080233 | 5 | 267 | 0.0 | 0.0 | 0.00 | 0.00 | 0.00 | 86 | 1013.4 |
| 20260507075729 | 5 | 266 | 0.0 | 0.0 | 0.00 | 0.00 | 0.00 | 86 | 1013.6 |
| 20260507075225 | 5 | 267 | 0.0 | 0.0 | 0.00 | 0.00 | 0.00 | 85 | 1013.7 |
| 20260507074721 | 5 | 265 | 0.0 | 0.0 | 0.00 | 0.00 | 0.00 | 85 | 1013.7 |
| 20260507074220 | 5 | 265 | 0.0 | 0.0 | 0.00 | 0.00 | 0.00 | 85 | 1013.7 |
| 20260507073716 | 5 | 266 | 0.0 | 0.0 | 0.00 | 0.00 | 0.00 | 84 | 1013.9 |
| 20260507073213 | 5 | 268 | 0.0 | 0.0 | 0.00 | 0.00 | 0.00 | 84 | 1013.8 |
| 20260507072711 | 5 | 270 | 0.0 | 0.0 | 0.00 | 0.00 | 0.00 | 83 | 1013.9 |
| 20260507072208 | 5 | 268 | 0.0 | 0.0 | 0.00 | 0.00 | 0.00 | 83 | 1013.6 |
| 20260507071705 | 5 | 267 | 0.0 | 0.0 | 0.00 | 0.00 | 0.00 | 83 | 1013.7 |
| 20260507071201 | 5 | 266 | 0.0 | 0.0 | 0.00 | 0.00 | 0.00 | 82 | 1013.7 |
| 20260507070659 | 6 | 268 | 0.0 | 0.0 | 0.00 | 0.00 | 0.00 | 82 | 1013.8 |
| 20260507070155 | 6 | 269 | 0.0 | 0.0 | 0.00 | 0.00 | 0.00 | 81 | 1013.6 |
| 20260507065651 | 6 | 264 | 0.0 | 0.0 | 0.00 | 0.00 | 0.00 | 80 | 1013.7 |
| 20260507065149 | 6 | 264 | 0.0 | 0.0 | 0.00 | 0.00 | 0.00 | 79 | 1013.8 |
| 20260507064646 | 6 | 262 | 0.0 | 0.0 | 0.00 | 0.00 | 0.00 | 78 | 1013.9 |
| 20260507064144 | 7 | 262 | 0.0 | 0.0 | 0.00 | 0.00 | 0.00 | 79 | 1013.8 |
| 20260507063642 | 7 | 264 | 0.0 | 0.0 | 0.00 | 0.00 | 0.00 | 77 | 1013.7 |
| 20260507063138 | 7 | 262 | 0.0 | 0.0 | 0.00 | 0.00 | 0.00 | 77 | 1013.7 |
| 20260507062635 | 7 | 262 | 0.0 | 0.0 | 0.00 | 0.00 | 0.00 | 77 | 1013.7 |
| 20260507062133 | 8 | 262 | 0.0 | 0.0 | 0.00 | 0.00 | 0.00 | 78 | 1013.6 |
| 20260507061631 | 8 | 262 | 0.0 | 0.0 | 0.00 | 0.00 | 0.00 | 75 | 1013.9 |
| 20260507061128 | 8 | 265 | 0.0 | 0.0 | 0.00 | 0.00 | 0.00 | 72 | 1013.8 |
| 20260507060626 | 8 | 265 | 0.0 | 0.0 | 0.00 | 0.00 | 0.00 | 72 | 1013.8 |
| 20260507060122 | 7 | 266 | 0.0 | 0.0 | 0.00 | 0.00 | 0.00 | 72 | 1013.9 |
| 20260507055618 | 7 | 265 | 0.0 | 0.0 | 0.00 | 0.00 | 0.00 | 73 | 1014.2 |
| 20260507055114 | 7 | 264 | 0.0 | 0.0 | 0.00 | 0.00 | 0.00 | 75 | 1014.1 |
| 20260507054610 | 8 | 261 | 0.0 | 0.0 | 0.00 | 0.00 | 0.00 | 75 | 1014.2 |
| 20260507054107 | 8 | 263 | 0.0 | 0.0 | 0.00 | 0.00 | 0.00 | 76 | 1014.2 |
| 20260507053605 | 8 | 260 | 0.0 | 0.0 | 0.00 | 0.00 | 0.00 | 75 | 1014.4 |
| 20260507053104 | 8 | 263 | 0.0 | 0.0 | 0.00 | 0.00 | 0.00 | 75 | 1014.6 |
| 20260507052601 | 8 | 262 | 0.0 | 0.0 | 0.00 | 0.00 | 0.00 | 73 | 1014.3 |
| 20260507052058 | 8 | 262 | 0.0 | 0.0 | 0.00 | 0.00 | 0.00 | 73 | 1014.5 |
| 20260507051555 | 8 | 262 | 0.0 | 0.0 | 0.00 | 0.00 | 0.00 | 73 | 1014.4 |
| 20260507051052 | 8 | 262 | 0.0 | 0.0 | 0.00 | 0.00 | 0.00 | 73 | 1014.5 |
| 20260507050549 | 8 | 264 | 0.0 | 0.0 | 0.00 | 0.00 | 0.00 | 71 | 1014.4 |
| 20260507050045 | 8 | 275 | 1.6 | 3.2 | 0.00 | 0.00 | 0.00 | 71 | 1014.4 |
| 20260507045542 | 8 | 267 | 0.0 | 0.0 | 0.00 | 0.00 | 0.00 | 72 | 1014.3 |
| 20260507045039 | 8 | 262 | 0.0 | 0.0 | 0.00 | 0.00 | 0.00 | 70 | 1014.2 |
| 20260507044535 | 8 | 265 | 0.0 | 0.0 | 0.00 | 0.00 | 0.00 | 68 | 1014.4 |
| 20260507044033 | 8 | 266 | 1.6 | 1.6 | 0.00 | 0.00 | 0.00 | 68 | 1014.4 |
| 20260507043528 | 8 | 270 | 0.0 | 0.0 | 0.00 | 0.00 | 0.00 | 69 | 1014.1 |
| 20260507043026 | 8 | 276 | 0.0 | 0.0 | 0.00 | 0.00 | 0.00 | 71 | 1014.3 |
| 20260507042522 | 8 | 267 | 0.0 | 0.0 | 0.00 | 0.00 | 0.00 | 73 | 1014.2 |
| 20260507042017 | 8 | 263 | 0.0 | 0.0 | 0.00 | 0.00 | 0.00 | 72 | 1014.3 |
| 20260507041515 | 8 | 273 | 0.0 | 0.0 | 0.00 | 0.00 | 0.00 | 70 | 1014.3 |
| 20260507041011 | 8 | 265 | 0.0 | 0.0 | 0.00 | 0.00 | 0.00 | 73 | 1014.4 |
| 20260507040507 | 9 | 261 | 0.0 | 0.0 | 0.00 | 0.00 | 0.00 | 71 | 1014.3 |
| 20260507040004 | 9 | 264 | 0.0 | 0.0 | 0.00 | 1.35 | 1.35 | 69 | 1014.3 |
| 20260507035500 | 9 | 264 | 0.0 | 0.0 | 0.00 | 1.35 | 1.35 | 67 | 1014.3 |
| 20260507034956 | 9 | 268 | 0.0 | 0.0 | 0.00 | 1.35 | 1.35 | 67 | 1014.0 |
| 20260507034453 | 9 | 265 | 0.0 | 0.0 | 0.00 | 1.35 | 1.35 | 67 | 1014.1 |
| 20260507033951 | 9 | 264 | 0.0 | 0.0 | 0.00 | 1.35 | 1.35 | 67 | 1014.0 |
| 20260507033449 | 9 | 264 | 0.0 | 0.0 | 0.00 | 1.35 | 1.35 | 68 | 1014.1 |
| 20260507032946 | 9 | 261 | 0.0 | 0.0 | 0.00 | 1.35 | 1.35 | 67 | 1014.0 |
| 20260507032443 | 9 | 270 | 1.6 | 1.6 | 0.00 | 1.35 | 1.35 | 66 | 1014.0 |
| 20260507031939 | 9 | 264 | 1.6 | 1.6 | 0.00 | 1.35 | 1.35 | 66 | 1013.9 |
| 20260507031435 | 9 | 277 | 0.0 | 1.6 | 0.00 | 1.35 | 1.35 | 66 | 1014.0 |
| 20260507030932 | 9 | 266 | 0.0 | 1.6 | 0.00 | 1.35 | 1.35 | 66 | 1013.8 |
| 20260507030430 | 9 | 263 | 0.0 | 0.0 | 0.00 | 1.35 | 1.35 | 66 | 1013.8 |
| 20260507025927 | 10 | 277 | 1.6 | 1.6 | 0.00 | 1.35 | 1.35 | 65 | 1014.0 |
| 20260507025424 | 9 | 306 | 3.2 | 3.2 | 0.00 | 1.35 | 1.35 | 65 | 1013.7 |
| 20260507024922 | 10 | 284 | 1.6 | 1.6 | 0.00 | 1.35 | 1.35 | 67 | 1013.8 |
| 20260507024419 | 10 | 308 | 3.2 | 3.2 | 0.00 | 1.35 | 1.35 | 67 | 1013.8 |
| 20260507023914 | 10 | 264 | 0.0 | 0.0 | 0.00 | 1.35 | 1.35 | 67 | 1013.7 |
| 20260507023412 | 10 | 265 | 0.0 | 0.0 | 0.00 | 1.35 | 1.35 | 68 | 1013.9 |
| 20260507022909 | 10 | 264 | 0.0 | 0.0 | 0.00 | 1.35 | 1.35 | 67 | 1013.8 |
| 20260507022405 | 10 | 268 | 1.6 | 1.6 | 0.00 | 1.35 | 1.35 | 65 | 1013.8 |
| 20260507021901 | 10 | 325 | 3.2 | 4.8 | 0.00 | 1.35 | 1.35 | 65 | 1013.6 |
| 20260507021356 | 10 | 284 | 3.2 | 3.2 | 0.00 | 1.35 | 1.35 | 65 | 1013.6 |
| 20260507020855 | 10 | 269 | 0.0 | 1.6 | 0.00 | 1.35 | 1.35 | 66 | 1013.5 |
| 20260507020351 | 10 | 265 | 0.0 | 0.0 | 0.00 | 1.35 | 1.35 | 66 | 1013.6 |
| 20260507015848 | 10 | 265 | 1.6 | 3.2 | 0.00 | 1.35 | 1.35 | 67 | 1013.4 |
| 20260507015346 | 10 | 264 | 0.0 | 0.0 | 0.00 | 1.35 | 1.35 | 66 | 1013.3 |
| 20260507014843 | 10 | 265 | 0.0 | 0.0 | 0.00 | 1.35 | 1.35 | 65 | 1013.3 |
| 20260507014339 | 10 | 279 | 0.0 | 0.0 | 0.00 | 1.35 | 1.35 | 65 | 1013.2 |
| 20260507013835 | 10 | 340 | 4.8 | 4.8 | 0.00 | 1.35 | 1.35 | 65 | 1012.7 |
| 20260507013332 | 10 | 269 | 1.6 | 1.6 | 0.00 | 1.35 | 1.35 | 65 | 1012.5 |
| 20260507012830 | 10 | 286 | 4.8 | 8.0 | 0.00 | 1.35 | 1.35 | 65 | 1012.6 |
| 20260507012326 | 10 | 287 | 4.8 | 4.8 | 0.00 | 1.35 | 1.35 | 66 | 1012.8 |
| 20260507011823 | 10 | 270 | 1.6 | 1.6 | 0.00 | 1.35 | 1.35 | 66 | 1012.8 |
| 20260507011320 | 10 | 266 | 0.0 | 0.0 | 0.00 | 1.35 | 1.35 | 66 | 1012.8 |
| 20260507010820 | 10 | 283 | 1.6 | 1.6 | 0.00 | 1.35 | 1.35 | 65 | 1012.7 |
| 20260507010315 | 10 | 275 | 1.6 | 1.6 | 0.00 | 1.35 | 1.35 | 66 | 1013.0 |
| 20260507005813 | 10 | 268 | 0.0 | 0.0 | 0.00 | 1.35 | 1.35 | 66 | 1013.0 |
| 20260507005310 | 10 | 283 | 1.6 | 1.6 | 0.00 | 1.35 | 1.35 | 66 | 1013.1 |
| 20260507004806 | 10 | 275 | 1.6 | 1.6 | 0.00 | 1.35 | 1.35 | 67 | 1013.1 |
| 20260507004304 | 10 | 278 | 1.6 | 1.6 | 0.00 | 1.35 | 1.35 | 68 | 1013.2 |
| 20260507003801 | 11 | 273 | 1.6 | 1.6 | 0.00 | 1.35 | 1.35 | 66 | 1013.5 |
| 20260507003255 | 11 | 271 | 1.6 | 1.6 | 0.00 | 1.35 | 1.35 | 65 | 1013.5 |
| 20260507002751 | 11 | 290 | 1.6 | 1.6 | 0.00 | 1.35 | 1.35 | 66 | 1013.5 |
| 20260507002248 | 11 | 328 | 1.6 | 3.2 | 0.00 | 1.35 | 1.35 | 66 | 1013.3 |
| 20260507001745 | 11 | 281 | 1.6 | 3.2 | 0.00 | 1.35 | 1.35 | 70 | 1013.4 |
| 20260507001242 | 11 | 264 | 0.0 | 0.0 | 0.00 | 1.35 | 1.35 | 69 | 1013.3 |
| 20260507000738 | 11 | 264 | 1.6 | 1.6 | 0.00 | 1.35 | 1.35 | 69 | 1013.0 |
| 20260507000234 | 11 | 299 | 3.2 | 3.2 | 0.00 | 1.35 | 1.35 | 70 | 1012.8 |
| 20260506235731 | 11 | 286 | 1.6 | 3.2 | 0.00 | 1.35 | 1.35 | 72 | 1013.1 |
| 20260506235226 | 11 | 269 | 0.0 | 0.0 | 0.00 | 1.35 | 1.35 | 72 | 1013.2 |
| 20260506234724 | 11 | 264 | 0.0 | 0.0 | 0.00 | 1.35 | 1.35 | 71 | 1013.0 |
| 20260506234221 | 11 | 261 | 0.0 | 0.0 | 0.00 | 1.35 | 1.35 | 72 | 1012.4 |
| 20260506233719 | 11 | 263 | 0.0 | 0.0 | 0.00 | 1.35 | 1.35 | 71 | 1012.7 |
| 20260506233215 | 11 | 293 | 0.0 | 0.0 | 0.00 | 1.35 | 1.35 | 74 | 1012.6 |
| 20260506232711 | 11 | 260 | 0.0 | 0.0 | 0.00 | 1.35 | 1.35 | 73 | 1012.5 |
| 20260506232206 | 11 | 265 | 0.0 | 0.0 | 0.00 | 1.35 | 1.35 | 73 | 1012.4 |